| time (UTC) | temp F | wind direction | speed knots | gust knots | rain 1hr in | rain 24hr in | rain mn in | humidity % | barometer mb |
| 20260506124524 | 55 | 261 | 0.9 | 2.6 | 0.07 | 0.13 | 0.11 | 88 | 1011.2 |
| 20260506123035 | 55 | 261 | 0.0 | 1.7 | 0.05 | 0.10 | 0.08 | 88 | 1010.7 |
| 20260506121522 | 54 | 261 | 0.0 | 1.7 | 0.02 | 0.07 | 0.05 | 88 | 1010.7 |
| 20260506120030 | 54 | 261 | 0.0 | 0.9 | 0.01 | 0.08 | 0.04 | 88 | 1010.5 |
| 20260506114521 | 54 | 261 | 0.0 | 2.6 | 0.01 | 0.08 | 0.04 | 87 | 1011.0 |
| 20260506113020 | 54 | 256 | 0.0 | 1.7 | 0.01 | 0.07 | 0.03 | 87 | 1011.2 |
| 20260506111520 | 54 | 256 | 0.9 | 2.6 | 0.01 | 0.07 | 0.03 | 87 | 1011.3 |
| 20260506110020 | 54 | 256 | 0.0 | 0.9 | 0.01 | 0.07 | 0.03 | 87 | 1011.0 |
| 20260506104524 | 53 | 256 | 0.0 | 1.7 | 0.02 | 0.07 | 0.03 | 86 | 1010.8 |
| 20260506103019 | 53 | 256 | 0.0 | 0.9 | 0.01 | 0.06 | 0.02 | 86 | 1011.0 |
| 20260506101518 | 53 | 256 | 0.0 | 0.9 | 0.01 | 0.06 | 0.02 | 86 | 1010.7 |
| 20260506100020 | 53 | 256 | 0.0 | 0.9 | 0.01 | 0.06 | 0.02 | 86 | 1010.6 |
| 20260506094516 | 53 | 256 | 0.9 | 1.7 | 0.01 | 0.05 | 0.01 | 85 | 1010.7 |
| 20260506093020 | 53 | 256 | 0.0 | 1.7 | 0.01 | 0.05 | 0.01 | 84 | 1010.7 |
| 20260506091514 | 54 | 256 | 0.0 | 1.7 | 0.01 | 0.05 | 0.01 | 84 | 1010.8 |
| 20260506090013 | 54 | 256 | 0.0 | 1.7 | 0.01 | 0.05 | 0.01 | 83 | 1010.9 |
| 20260506084511 | 53 | 256 | 0.0 | 1.7 | 0.00 | 0.04 | 0.00 | 83 | 1011.2 |
| 20260506083012 | 53 | 256 | 0.9 | 5.2 | 0.00 | 0.04 | 0.00 | 83 | 1011.5 |
| 20260506081515 | 54 | 272 | 1.7 | 2.6 | 0.00 | 0.04 | 0.00 | 82 | 1011.5 |
| 20260506073006 | 55 | 44 | 0.0 | 2.6 | 0.00 | 0.04 | 0.00 | 82 | 1011.1 |
| 20260506071506 | 55 | 44 | 0.9 | 2.6 | 0.00 | 0.04 | 0.00 | 82 | 1011.2 |
| 20260506061602 | 55 | 44 | 0.0 | 1.7 | 0.00 | 0.04 | 0.00 | 81 | 1011.8 |
| 20260506044553 | 56 | 20 | 0.0 | 1.7 | 0.00 | 0.04 | 0.00 | 80 | 1012.9 |
| 20260506043049 | 56 | 20 | 0.0 | 1.7 | 0.00 | 0.04 | 0.00 | 79 | 1013.1 |
| 20260506041548 | 56 | 20 | 0.0 | 2.6 | 0.00 | 0.04 | 0.00 | 78 | 1012.8 |
| 20260506040045 | 57 | 20 | 0.0 | 1.7 | 0.00 | 0.04 | 0.00 | 77 | 1013.1 |
| 20260506034602 | 57 | 20 | 0.9 | 3.5 | 0.00 | 0.04 | 0.04 | 76 | 1013.2 |
| 20260506033043 | 57 | 58 | 0.0 | 3.5 | 0.00 | 0.04 | 0.04 | 76 | 1013.5 |
| 20260506031550 | 58 | 58 | 3.5 | 7.0 | 0.00 | 0.04 | 0.04 | 75 | 1013.4 |
| 20260506030039 | 58 | 31 | 0.9 | 3.5 | 0.00 | 0.04 | 0.04 | 74 | 1013.3 |
| 20260506024538 | 59 | 49 | 0.0 | 7.8 | 0.00 | 0.04 | 0.04 | 74 | 1013.3 |
| 20260506023034 | 60 | 46 | 4.3 | 9.6 | 0.00 | 0.04 | 0.04 | 77 | 1013.3 |
| 20260506021531 | 62 | 28 | 0.9 | 7.8 | 0.00 | 0.04 | 0.04 | 78 | 1012.8 |
| 20260506020034 | 62 | 52 | 4.3 | 9.6 | 0.00 | 0.04 | 0.04 | 77 | 1012.7 |
| 20260506014530 | 63 | 350 | 2.6 | 4.3 | 0.00 | 0.04 | 0.04 | 77 | 1012.6 |
| 20260506013030 | 63 | 335 | 0.9 | 10.4 | 0.00 | 0.04 | 0.04 | 79 | 1012.5 |
| 20260506011525 | 63 | 355 | 2.6 | 7.0 | 0.00 | 0.04 | 0.04 | 81 | 1012.0 |
| 20260506010046 | 63 | 40 | 1.7 | 4.3 | 0.00 | 0.04 | 0.04 | 81 | 1012.0 |
| 20260506004524 | 64 | 141 | 1.7 | 3.5 | 0.00 | 0.04 | 0.04 | 81 | 1011.1 |
| 20260506003023 | 64 | 218 | 0.9 | 3.5 | 0.00 | 0.04 | 0.04 | 80 | 1011.0 |
| 20260506001523 | 64 | 218 | 1.7 | 3.5 | 0.00 | 0.04 | 0.04 | 80 | 1010.9 |
| 20260506000022 | 64 | 218 | 1.7 | 2.6 | 0.00 | 0.04 | 0.04 | 78 | 1010.8 |
| 20260505234521 | 65 | 218 | 1.7 | 3.5 | 0.00 | 0.04 | 0.04 | 77 | 1010.8 |
| 20260505233021 | 65 | 218 | 1.7 | 3.5 | 0.00 | 0.04 | 0.04 | 77 | 1010.7 |
| 20260505231521 | 66 | 218 | 2.6 | 4.3 | 0.00 | 0.04 | 0.04 | 77 | 1010.8 |
| 20260505230026 | 66 | 221 | 1.7 | 4.3 | 0.00 | 0.04 | 0.04 | 76 | 1010.6 |
| 20260505224520 | 66 | 228 | 0.9 | 3.5 | 0.00 | 0.04 | 0.04 | 75 | 1010.5 |
| 20260505223019 | 66 | 227 | 2.6 | 4.3 | 0.00 | 0.04 | 0.04 | 76 | 1010.6 |
| 20260505221519 | 65 | 207 | 3.5 | 7.0 | 0.00 | 0.04 | 0.04 | 77 | 1010.7 |
| 20260505220022 | 66 | 227 | 5.2 | 7.8 | 0.00 | 0.04 | 0.04 | 76 | 1010.5 |
| 20260505214517 | 66 | 223 | 1.7 | 4.3 | 0.00 | 0.04 | 0.04 | 74 | 1010.0 |
| 20260505213023 | 67 | 198 | 0.9 | 5.2 | 0.00 | 0.04 | 0.04 | 75 | 1009.8 |
| 20260505211520 | 67 | 244 | 1.7 | 4.3 | 0.00 | 0.04 | 0.04 | 74 | 1009.9 |
| 20260505210018 | 66 | 211 | 2.6 | 5.2 | 0.00 | 0.04 | 0.04 | 76 | 1009.8 |
| 20260505204514 | 65 | 212 | 0.9 | 5.2 | 0.00 | 0.04 | 0.04 | 77 | 1010.1 |
| 20260505203025 | 65 | 218 | 1.7 | 3.5 | 0.01 | 0.04 | 0.04 | 76 | 1010.3 |
| 20260505201516 | 65 | 248 | 1.7 | 7.0 | 0.01 | 0.04 | 0.04 | 74 | 1010.3 |
| 20260505200012 | 64 | 229 | 2.6 | 11.3 | 0.01 | 0.04 | 0.04 | 74 | 1010.4 |
| 20260505194510 | 66 | 275 | 11.3 | 33.9 | 0.01 | 0.04 | 0.04 | 69 | 1010.9 |
| 20260505193010 | 78 | 238 | 9.6 | 23.5 | 0.00 | 0.03 | 0.03 | 34 | 1008.2 |
| 20260505191509 | 78 | 270 | 14.8 | 27.8 | 0.00 | 0.03 | 0.03 | 32 | 1007.9 |
| 20260505190007 | 78 | 234 | 10.4 | 20.9 | 0.00 | 0.03 | 0.03 | 36 | 1007.9 |
| 20260505184504 | 77 | 262 | 11.3 | 20.9 | 0.01 | 0.03 | 0.03 | 40 | 1008.7 |
| 20260505183002 | 77 | 236 | 6.1 | 18.2 | 0.01 | 0.03 | 0.03 | 45 | 1008.5 |
| 20260505181600 | 74 | 240 | 5.2 | 10.4 | 0.01 | 0.03 | 0.03 | 54 | 1009.2 |
| 20260505180058 | 73 | 228 | 11.3 | 17.4 | 0.01 | 0.03 | 0.03 | 51 | 1009.6 |
| 20260505174557 | 76 | 243 | 10.4 | 20.9 | 0.00 | 0.02 | 0.02 | 44 | 1009.8 |
| 20260505173104 | 75 | 257 | 7.8 | 18.2 | 0.00 | 0.02 | 0.02 | 45 | 1009.9 |
| 20260505171601 | 75 | 242 | 10.4 | 17.4 | 0.00 | 0.02 | 0.02 | 44 | 1009.8 |
| 20260505170057 | 76 | 211 | 8.7 | 16.5 | 0.00 | 0.02 | 0.02 | 43 | 1009.6 |
| 20260505164555 | 76 | 245 | 8.7 | 19.1 | 0.00 | 0.02 | 0.02 | 43 | 1009.2 |
| 20260505163052 | 76 | 222 | 6.1 | 15.6 | 0.00 | 0.02 | 0.02 | 43 | 1009.5 |
| 20260505161616 | 76 | 273 | 13.9 | 20.9 | 0.00 | 0.02 | 0.02 | 41 | 1009.8 |
| 20260505153050 | 76 | 237 | 13.0 | 23.5 | 0.00 | 0.02 | 0.02 | 42 | 1009.8 |
| 20260505151546 | 75 | 268 | 12.2 | 20.9 | 0.00 | 0.02 | 0.02 | 43 | 1010.0 |